Regional Weather Roundup
Issued by NWS Green Bay, WI

Home | Current Version | Previous Version | Text Only | Print | Product List | Glossary On
Versions: 1 2 3 4 5 6 7 8 9 10 11 12 13 14 15 16 17 18 19 20 21 22 23 24 25 26 27 28 29 30 31 32 33 34 35 36 37 38 39 40 41 42 43 44 45 46 47 48 49 50
000
ASUS43 KGRB 271811
RWRGRB

NORTH-CENTRAL AND NORTHEAST WISCONSIN REGIONAL WEATHER ROUNDUP
NATIONAL WEATHER SERVICE GREEN BAY WI
1200 PM CST MON FEB 27 2017

WIZ005-009-010>012-018-019-271900-
NORTH CENTRAL WISCONSIN

CITY           SKY/WX    TMP DP  RH WIND       PRES   REMARKS
IRONWOOD       NOT AVBL
MANITOWISH WTR CLOUDY    34  22  63 SW9G16    29.95F
ARBOR VITAE    MOSUNNY   39  22  50 S20G28      N/A
EAGLE RIVER    SUNNY     37  17  45 SW15G23   29.97S
LAND O LAKES   CLOUDY    34  21  58 S6        29.98F
RHINELANDER    MOSUNNY   37  19  48 S15G22    30.00S
PHILLIPS       MOSUNNY   37  20  51 SW13      29.98R
ANTIGO         SUNNY     36  19  50 SW14      30.04F
TOMAHAWK       SUNNY     39  17  42 SW5       30.01F
MERRILL        NOT AVBL
$$

WIZ013-073-271900-
NORTHEAST WISCONSIN

CITY           SKY/WX    TMP DP  RH WIND       PRES   REMARKS
IRON MOUNTAIN  CLOUDY    30  16  56 SE7       30.04F
MARINETTE      SUNNY     36  22  56 SW10      30.12F
OCONTO         SUNNY     36  23  60 S7        30.11F
$$

WIZ017-030-035>037-045-271900-
CENTRAL WISCONSIN

CITY           SKY/WX    TMP DP  RH WIND       PRES   REMARKS
MEDFORD        SUNNY     32  21  63 SW12      30.02F
WAUSAU         SUNNY     37  19  48 S10       30.04S
MOSINEE        MOSUNNY   36  21  55 S13G20    30.06S
MARSHFIELD     SUNNY     37  19  48 S12       30.03F
WISC RAPIDS    SUNNY     39  20  46 S12G22    30.08S
STEVENS POINT  SUNNY     36  20  52 S9        30.07F
WAUPACA        SUNNY     43  21  41 SE8       30.10S
SHAWANO        SUNNY     41  20  42 S7        30.10F
CLINTONVILLE   SUNNY     39  21  48 S7        30.09F
WAUTOMA        SUNNY     41  20  43 S10       30.09F
$$

WIZ038-039-048-051-271900-
FOX VALLEY

CITY           SKY/WX    TMP DP  RH WIND       PRES   REMARKS
NWS GREEN BAY  SUNNY     38  25  59 S10       30.12S
APPLETON       MOSUNNY   37  21  52 SE9       30.10S
OSHKOSH        MOSUNNY   37  24  59 S13       30.11S
FOND DU LAC    PTSUNNY   39  22  50 S14       30.11S
$$

WIZ022-050-052-271900-
EAST CENTRAL WISCONSIN

CITY           SKY/WX    TMP DP  RH WIND       PRES   REMARKS
EPHRAIM        FAIR      37  28  72 S10       30.11F
WASHINGTON ISL FAIR      34  26  75 S9G18     30.12F
STURGEON BAY   SUNNY     37  23  56 S14       30.12S
MANITOWOC      SUNNY     36  27  69 S13       30.15S
SHEBOYGAN      SUNNY     37  26  64 S13       30.14S
$$

LMZ563-521-522-541>543-271900-
LAKESHORE

STATION/POSITION TIME  TEMP    WIND        PRES    VSBY  WAVE
                       AIR SEA DIR/SP/G                  HT/PER
                 (UTC) (F)     (DEG/KT/KT) (MB)    (MI)  (FT/S)
SHEBOYGAN LKSHOR 1800   36     170/ 14/ 16 1021.3R
KEWAUNEE LKSHORE 1742   34     190/ 15/ 17 1020.3S
NORTHPORT PIER   1740   34     160/ 11/ 18 1020.0F
SISTER BAY LKSHO 1735          170/ 13/ 15   N/A
CHAMBERS ISLAND  1740   37     160/  6/ 13 1019.6S
MENOMINEE LKSHOR 1742   34     180/  8/ 10 1019.2F
$$



USA.gov is the U.S. government's official web portal to all federal, state and local government web resources and services.